Tobyhanna, PA

8:23 AM EST on February 19, 2017 (GMT -0500)
Pocono Mountains Municipal

Weather History for KMPO - January, 2014

Change the Weather History Date:

Wednesday, January 22, 2014

  Actual Average Record
Temperature  
Mean Temperature -1 °F 23 °F  
Max Temperature 6 °F 31 °F 58 °F (1909)
Min Temperature -9 °F 16 °F -23 °F (1984)
Degree Days  
Heating Degree Days 66 42  
Month to date heating degree days 962 920  
Since 1 July heating degree days 3694 3657  
Cooling Degree Days 0 0  
Month to date cooling degree days 0 0  
Year to date cooling degree days 0 0  
Moisture  
Dew Point -12 °F    
Average Humidity 61    
Maximum Humidity 72    
Minimum Humidity 49    
Precipitation  
Precipitation 0.00 in 0.08 in 1.68 in (1958)
Month to date precipitation 3.30 2.20  
Year to date precipitation 3.30 2.20  
Sea Level Pressure  
Sea Level Pressure 29.89 in    
Wind  
Wind Speed 15 mph (NW)    
Max Wind Speed 24 mph    
Max Gust Speed 34 mph    
Visibility 10 miles    
Events      
T = Trace of Precipitation, MM = Missing Value Source: NWS Daily Summary

Daily Weather History Graph

Daily Weather History Graph

Search for Another Location

Airport or City:

Trip Planner

Search our weather history database for the weather conditions in past years. The results will help you decide how hot, cold, wet, or windy it might be!

Date:

Astronomy

Jan. 22, 2014 Rise Set
Actual Time 7:20 AM EST 5:05 PM EST
Civil Twilight 6:50 AM EST 5:35 PM EST
Nautical Twilight 6:17 AM EST 6:09 PM EST
Astronomical Twilight 5:44 AM EST 6:42 PM EST
Moon 11:40 PM EST (1/22) 10:16 AM EST (1/22)
Length of Visible Light 10h 44m
Length of Day
9h 45m
Waning Gibbous, 65% of the Moon is Illuminated
Jan 22
Waning Gibbous
Jan 24
Last Quarter
Jan 30
New
Feb 6
First Quarter
Feb 14
Full

Hourly Weather History & Observations

Time (EST) Temp. Windchill Dew Point Humidity Pressure Visibility Wind Dir Wind Speed Gust Speed Precip Events Conditions
12:53 AM -2.0 °F -17.7 °F -11.0 °F 66% 29.83 in 10.0 mi NNW 9.2 mph 21.9 mph N/A   Clear
1:53 AM -4.0 °F -23.7 °F -11.9 °F 69% 29.84 in 10.0 mi NNW 13.8 mph - N/A   Clear
2:53 AM -6.0 °F -27.7 °F -13.0 °F 72% 29.84 in 10.0 mi NNW 16.1 mph 23.0 mph N/A   Clear
3:53 AM -7.1 °F -27.6 °F -14.1 °F 72% 29.84 in 10.0 mi NW 13.8 mph 20.7 mph N/A   Clear
4:53 AM -7.1 °F -28.4 °F -15.0 °F 68% 29.85 in 10.0 mi NW 15.0 mph 26.5 mph N/A   Clear
5:53 AM -8.0 °F -28.8 °F -17.0 °F 65% 29.87 in 10.0 mi NW 13.8 mph - N/A   Clear
6:53 AM -9.0 °F -28.4 °F -18.0 °F 65% 29.87 in 10.0 mi NW 11.5 mph 21.9 mph N/A   Clear
7:53 AM -9.0 °F -31.7 °F -17.0 °F 68% 29.87 in 10.0 mi NNW 16.1 mph 23.0 mph N/A   Clear
8:53 AM -7.1 °F -27.6 °F -16.1 °F 65% 29.88 in 10.0 mi NW 13.8 mph - N/A   Clear
9:53 AM -2.9 °F -24.4 °F -15.0 °F 56% 29.87 in 10.0 mi NNW 17.3 mph 27.6 mph N/A   Clear
10:53 AM -0.0 °F -20.1 °F -11.9 °F 57% 29.85 in 10.0 mi NNW 16.1 mph 23.0 mph N/A   Clear
11:53 AM 1.9 °F -17.5 °F -11.9 °F 52% 29.84 in 10.0 mi NW 16.1 mph 31.1 mph N/A   Clear
12:53 PM 3.9 °F -16.6 °F -11.0 °F 50% 29.83 in 10.0 mi NW 19.6 mph 28.8 mph N/A   Clear
1:53 PM 5.0 °F -11.6 °F -9.9 °F 50% 29.86 in 10.0 mi NNW 12.7 mph 25.3 mph N/A   Clear
2:53 PM 6.1 °F -13.3 °F -9.0 °F 50% 29.87 in 10.0 mi NNW 18.4 mph 25.3 mph N/A   Clear
3:53 PM 5.0 °F -16.2 °F -9.0 °F 52% 29.89 in 10.0 mi NW 21.9 mph 31.1 mph N/A   Clear
4:53 PM 3.9 °F -16.1 °F -9.0 °F 55% 29.91 in 10.0 mi NW 18.4 mph 28.8 mph N/A   Clear
5:53 PM 1.9 °F -16.2 °F -9.0 °F 60% 29.93 in 10.0 mi NW 13.8 mph - N/A   Clear
6:53 PM 1.0 °F -17.3 °F -9.9 °F 60% 29.96 in 10.0 mi NW 13.8 mph - N/A   Clear
7:53 PM -0.0 °F -20.7 °F -9.9 °F 63% 29.97 in 10.0 mi NW 17.3 mph 28.8 mph N/A   Clear
8:53 PM -0.0 °F -22.4 °F -9.9 °F 63% 29.98 in 10.0 mi NNW 20.7 mph 28.8 mph N/A   Clear
9:53 PM -0.9 °F -19.1 °F -9.9 °F 66% 29.98 in 10.0 mi NW 12.7 mph 21.9 mph N/A   Partly Cloudy
10:53 PM -0.9 °F -18.3 °F -9.0 °F 69% 29.99 in 10.0 mi NW 11.5 mph 18.4 mph N/A   Partly Cloudy
11:53 PM -0.9 °F -19.1 °F -8.0 °F 72% 29.98 in 10.0 mi NW 12.7 mph 21.9 mph N/A   Mostly Cloudy